Tracking 28790 objects as of 19-Apr-2024
HD Live streaming from Space Station
objects crossing your sky now

FENGYUN 1C DEB

Track FENGYUN 1C DEB now!
10-day predictions


NORAD ID: 31829
Int'l Code: 1999-025CHT
Perigee: 819.2 km
Apogee: 1,069.8 km
Inclination: 98.8 °
Period: 103.8 minutes
Semi major axis: 7315 km
RCS: 0.0129 m2 (small)
Launch date: May 10, 1999
Source: People's Republic of China (PRC)
Launch site: Taiyaun Space Center, China (TSC)

Note: This is SATELLITE DEBRIS
Your satellite tracking list
Your tracking list is empty




NASA's NSSDC Master Catalog

Two Line Element Set (TLE):
1 31829U 99025CHT 24109.76876336  .00000972  00000-0  76390-3 0  9996
2 31829  98.8304 305.7235 0171312   7.6925  50.3736 13.87506785857820
Source of the keplerian elements: AFSPC